Prudhoe Bay, AK

3:41 AM AKDT on August 28, 2016 (GMT -0800)
Deadhorse

Weather History for PASC - March, 2014

Change the Weather History Date:

Friday, March 7, 2014

  Actual Average Record
Temperature  
Mean Temperature -21 °F -  
Max Temperature -15 °F -7 °F 15 °F (2003)
Min Temperature -27 °F -19 °F -45 °F (2004)
Degree Days  
Heating Degree Days 86    
Moisture  
Dew Point -27 °F    
Average Humidity 74    
Maximum Humidity 78    
Minimum Humidity 70    
Precipitation  
Precipitation 0.00 in - - ()
Sea Level Pressure  
Sea Level Pressure 30.16 in    
Wind  
Wind Speed 15 mph (WSW)    
Max Wind Speed 20 mph    
Max Gust Speed -    
Visibility 8 miles    
Events Snow    
Averages and records for this station are not official NWS values.
T = Trace of Precipitation, MM = Missing Value Source: NWS Daily Summary

Daily Weather History Graph

Daily Weather History Graph

Search for Another Location

Airport or City:

Trip Planner

Search our weather history database for the weather conditions in past years. The results will help you decide how hot, cold, wet, or windy it might be!

Date:

Astronomy

Mar. 07, 2014 Rise Set
Actual Time 7:52 AM AKST 6:19 PM AKST
Civil Twilight 6:51 AM AKST 7:20 PM AKST
Nautical Twilight 5:39 AM AKST 8:33 PM AKST
Astronomical Twilight 4:18 AM AKST 9:55 PM AKST
Moon 7:47 AM AKST (3/7) 4:33 AM AKST (3/7)
Length of Visible Light 12h 29m
Length of Day
10h 26m
Waxing Crescent, 43% of the Moon is Illuminated
Mar 7
Waxing Crescent
Mar 8
First Quarter
Mar 16
Full
Mar 23
Last Quarter
Mar 30
New

Hourly Weather History & Observations

Time (AKST) Temp. Windchill Dew Point Humidity Pressure Visibility Wind Dir Wind Speed Gust Speed Precip Events Conditions
12:53 AM -27.9 °F -55.1 °F -34.1 °F 73% 30.29 in 10.0 mi SW 15.0 mph - N/A   Clear
1:53 AM -27.9 °F -53.2 °F -34.1 °F 73% 30.28 in 7.0 mi SW 12.7 mph - N/A   Scattered Clouds
2:53 AM -27.0 °F -54.0 °F -33.0 °F 73% 30.26 in 10.0 mi SW 15.0 mph - N/A   Scattered Clouds
3:53 AM -27.9 °F -54.2 °F -34.1 °F 73% 30.25 in 10.0 mi SW 13.8 mph - N/A   Scattered Clouds
4:53 AM -25.1 °F -51.5 °F -32.1 °F 70% 30.22 in 9.0 mi SW 15.0 mph - N/A   Scattered Clouds
5:53 AM -23.1 °F -48.9 °F -29.0 °F 74% 30.19 in 10.0 mi SW 15.0 mph - N/A   Partly Cloudy
6:53 AM -23.1 °F -48.9 °F -29.0 °F 74% 30.19 in 10.0 mi WSW 15.0 mph - N/A   Scattered Clouds
7:53 AM -22.0 °F -47.5 °F -27.9 °F 74% 30.17 in 10.0 mi SW 15.0 mph - N/A   Mostly Cloudy
8:53 AM -20.9 °F -47.0 °F -27.0 °F 73% 30.15 in 10.0 mi SW 16.1 mph - N/A   Scattered Clouds
9:53 AM -20.9 °F -47.0 °F -27.0 °F 73% 30.14 in 8.0 mi SW 16.1 mph - N/A   Mostly Cloudy
10:53 AM -20.9 °F -49.2 °F -27.0 °F 73% 30.13 in 5.0 mi SW 19.6 mph - N/A Snow Blowing Snow
11:53 AM -18.9 °F -44.4 °F -25.1 °F 74% 30.14 in 10.0 mi SW 16.1 mph - N/A   Scattered Clouds
12:53 PM -16.1 °F -40.7 °F -22.0 °F 74% 30.14 in 3.0 mi WSW 16.1 mph - N/A Snow Blowing Snow
1:53 PM -16.1 °F -39.9 °F -22.0 °F 74% 30.12 in 3.0 mi WSW 15.0 mph - N/A Snow Blowing Snow
2:53 PM -15.0 °F -38.5 °F -20.9 °F 75% 30.13 in 3.0 mi West 15.0 mph - N/A Snow Blowing Snow
3:53 PM -17.0 °F -39.3 °F -22.0 °F 78% 30.12 in 6.0 mi WSW 12.7 mph - N/A Snow Blowing Snow
4:53 PM -17.0 °F -39.3 °F -23.1 °F 74% 30.11 in 10.0 mi WSW 12.7 mph - N/A Snow Blowing Snow
5:53 PM -20.0 °F -44.1 °F -26.0 °F 74% 30.11 in 7.0 mi WSW 13.8 mph - N/A   Scattered Clouds
6:53 PM -20.9 °F -45.3 °F -27.0 °F 73% 30.11 in 7.0 mi WSW 13.8 mph - N/A   Scattered Clouds
7:53 PM -18.9 °F -43.6 °F -25.1 °F 74% 30.11 in 8.0 mi WSW 15.0 mph - N/A   Partly Cloudy
8:00 PM -18.4 °F -43.7 °F -25.6 °F 70% 30.10 in 7.0 mi WSW 16.1 mph - N/A   Mostly Cloudy
8:53 PM -18.9 °F -43.6 °F -25.1 °F 74% 30.11 in 6.0 mi WSW 15.0 mph - N/A   Overcast
9:53 PM -22.0 °F -45.7 °F -27.0 °F 77% 30.11 in 10.0 mi WSW 12.7 mph - N/A   Scattered Clouds
10:53 PM -23.1 °F -47.1 °F -29.0 °F 74% 30.10 in 9.0 mi WSW 12.7 mph - N/A   Scattered Clouds
11:53 PM -25.1 °F -47.4 °F -29.9 °F 78% 30.10 in 10.0 mi WSW 10.4 mph - N/A   Mostly Cloudy